Weather History for Cut Bank, MT

Change the Weather History Date:

Thursday, February 28, 2013

  Actual Average Record
Temperature  
Mean Temperature 35 °F 26 °F  
Max Temperature 48 °F 38 °F 66 °F (1992)
Min Temperature 21 °F 15 °F -25 °F (1911)
Degree Days  
Heating Degree Days 30 39  
Month to date heating degree days 976 1143  
Since 1 July heating degree days 5739 6060  
Cooling Degree Days 0 0  
Month to date cooling degree days 0 0  
Year to date cooling degree days 0 0  
Moisture  
Dew Point 18 °F    
Average Humidity 48    
Maximum Humidity 74    
Minimum Humidity 21    
Precipitation  
Precipitation 0.00 in 0.01 in 0.27 in (1980)
Month to date precipitation 0.31 0.21  
Year to date precipitation 0.73 0.41  
Snow  
Snow 0.00 in - - ()
Snow Depth 0.00 in    
Sea Level Pressure  
Sea Level Pressure 30.20 in    
Wind  
Wind Speed 15 mph (West)    
Max Wind Speed 31 mph    
Max Gust Speed 36 mph    
Visibility 10 miles    
Events      
T = Trace of Precipitation, MM = Missing Value Source: NWS Daily Summary

Daily Weather History Graph

Daily Weather History Graph

Search for Another Location

Airport:

Trip Planner

Search our weather history database for the weather conditions in past years. The results will help you decide how hot, cold, wet, or windy it might be!

Date:

Astronomy

Feb. 28, 2013 Rise Set
Actual Time 7:12 AM MST 6:12 PM MST
Civil Twilight 6:40 AM MST 6:43 PM MST
Nautical Twilight 6:04 AM MST 7:20 PM MST
Astronomical Twilight 5:28 AM MST 7:56 PM MST
Moon 10:06 PM MST (2/28) 8:05 AM MST (2/28)
Length of Visible Light 12h 02m
Length of Day
10h 59m
Waning Gibbous, 90% of the Moon is Illuminated
Feb 28
Waning Gibbous
Mar 4
Last Quarter
Mar 11
New
Mar 19
First Quarter
Mar 27
Full

Hourly Weather History & Observations

Time (MST) Temp. Windchill Dew Point Humidity Pressure Visibility Wind Dir Wind Speed Gust Speed Precip Events Conditions
12:56 AM 28.0 °F 16.1 °F 17.1 °F 63% 30.19 in 10.0 mi West 16.1 mph 25.3 mph N/A   Clear
1:56 AM 25.0 °F 18.1 °F 17.1 °F 72% 30.20 in 10.0 mi NW 5.8 mph - N/A   Clear
2:56 AM 24.1 °F - 16.0 °F 71% 30.19 in 10.0 mi Calm Calm - N/A   Scattered Clouds
3:56 AM 28.9 °F 19.8 °F 18.0 °F 64% 30.17 in 10.0 mi WSW 10.4 mph - N/A   Overcast
4:56 AM 28.0 °F 19.3 °F 19.0 °F 69% 30.17 in 10.0 mi WSW 9.2 mph - N/A   Partly Cloudy
5:56 AM 26.1 °F 17.6 °F 17.1 °F 69% 30.20 in 10.0 mi West 8.1 mph - N/A   Clear
6:56 AM 28.9 °F 18.2 °F 18.0 °F 64% 30.19 in 10.0 mi West 13.8 mph - N/A   Mostly Cloudy
7:56 AM 28.0 °F 20.0 °F 19.0 °F 69% 30.22 in 10.0 mi WSW 8.1 mph - N/A   Clear
8:56 AM 34.0 °F 28.0 °F 19.9 °F 56% 30.21 in 10.0 mi WNW 6.9 mph - N/A   Clear
9:56 AM 39.9 °F 32.5 °F 19.9 °F 45% 30.21 in 10.0 mi WNW 12.7 mph - N/A   Clear
10:56 AM 43.0 °F 36.0 °F 15.1 °F 32% 30.21 in 10.0 mi NW 13.8 mph - N/A   Clear
11:56 AM 46.0 °F 39.6 °F 10.9 °F 24% 30.20 in 10.0 mi WNW 15.0 mph 21.9 mph N/A   Clear
12:56 PM 46.0 °F 39.9 °F 10.0 °F 23% 30.20 in 10.0 mi WNW 13.8 mph 23.0 mph N/A   Clear
1:56 PM 48.0 °F - 10.0 °F 22% 30.19 in 10.0 mi WNW 17.3 mph 23.0 mph N/A   Clear
2:56 PM 46.0 °F 38.0 °F 16.0 °F 30% 30.21 in 10.0 mi WSW 21.9 mph 27.6 mph N/A   Clear
3:56 PM 43.0 °F 33.5 °F 17.1 °F 35% 30.22 in 10.0 mi WSW 24.2 mph - N/A   Clear
4:56 PM 39.9 °F 30.0 °F 18.0 °F 41% 30.24 in 10.0 mi WSW 21.9 mph 29.9 mph N/A   Clear
5:56 PM 37.9 °F 27.3 °F 19.0 °F 47% 30.25 in 10.0 mi West 21.9 mph 32.2 mph N/A   Clear
6:56 PM 37.0 °F 27.4 °F 19.9 °F 50% 30.26 in 10.0 mi West 17.3 mph - N/A   Partly Cloudy
7:56 PM 37.9 °F 26.1 °F 21.0 °F 51% 30.26 in 10.0 mi West 27.6 mph 35.7 mph N/A   Scattered Clouds
8:56 PM 36.0 °F 26.0 °F 21.9 °F 57% 30.22 in 10.0 mi West 17.3 mph 25.3 mph N/A   Clear
9:56 PM 37.0 °F 26.7 °F 23.0 °F 57% 30.19 in 10.0 mi WSW 19.6 mph - N/A   Mostly Cloudy
10:56 PM 35.1 °F 24.8 °F 23.0 °F 61% 30.18 in 10.0 mi WSW 17.3 mph - N/A   Scattered Clouds
11:56 PM 33.8 °F 27.0 °F 23.0 °F 65% 30.11 in 10.0 mi SW 8.1 mph - N/A   Clear